Location: ??????
(56.0120°N, 39.1740°E)
Time: 17:34:20
(UTC+00:00)

Cosmos 1378 Rocket - Pass Details

Date: 14 April 2026
Orbit: 594 x 619 km, 82.5° (Epoch: 15 May)

Event Time Altitude Azimuth Distance (km) Brightness Sun altitude
Rises 17:20:13 0° 351° (N) 2,911 7.6 -7.5°
Reaches altitude 10° 17:22:37 10° 0° (N) 1,998 6.6 -7.8°
Maximum altitude 17:26:44 37° 68° (ENE) 977 4.3 -8.3°
Enters shadow 17:30:40 11° 136° (SE) 1,931 5.5 -8.7°
